Theta_e
314 315 321 323 323 324 325 331 331 335 339 327 323 323 318 321 324 323 322 321 321 322 323 321 321 320 319 320 320 322 324 325 326 324 328 334 327 326 326 325 332 332 334 339 339 336 337 339 339 342 342 342 343 343 343 342 342 342 342 342 342 342 341 341 340 341 340 338 337 334 335 335 334 335 335 336 336 336 336 336 334 331 333 336 338 339 339 339 339 339 337 336 335 333 330 328 327
317 319 323 323 324 322 328 337 335 337 336 319 317 320 317 324 324 322 325 323 324 324 324 323 321 323 321 320 319 320 320 321 325 323 329 331 325 326 325 328 333 331 334 338 338 336 337 339 339 341 342 341 342 341 342 341 342 342 342 342 342 341 341 342 340 341 339 336 337 334 333 333 333 334 334 335 335 335 335 334 333 332 334 337 339 339 339 339 338 338 336 335 335 334 332 330 328
321 322 323 322 324 324 336 341 336 336 327 315 317 322 320 322 323 324 327 325 325 324 323 322 321 323 320 321 320 319 321 319 323 331 334 328 327 326 323 331 334 332 334 336 339 337 336 338 338 340 341 341 341 340 340 341 342 342 342 342 341 341 341 341 341 340 337 336 338 336 334 332 331 333 333 334 333 332 332 332 332 333 336 338 338 339 339 339 338 336 335 334 334 334 334 333 332
322 324 323 322 329 335 345 338 338 339 323 318 318 321 326 322 324 325 326 324 324 322 321 322 320 321 319 322 320 318 321 318 321 334 337 327 328 325 323 331 334 334 335 337 338 337 336 337 338 339 340 341 341 341 340 340 340 341 341 341 341 341 341 341 340 338 337 337 338 338 337 336 335 335 335 335 333 331 331 331 331 333 336 337 338 338 338 338 336 335 334 332 333 334 333 333 332
323 325 322 322 332 335 338 330 336 335 320 325 319 320 329 324 324 322 322 322 321 321 322 323 321 320 319 320 320 319 321 319 318 325 329 324 325 325 325 330 334 336 336 338 338 337 336 335 337 337 338 340 341 341 340 340 340 341 340 340 340 340 340 339 339 338 338 337 338 338 338 338 337 336 337 336 335 333 331 331 331 333 336 337 338 338 337 336 335 334 332 331 332 332 332 332 328
323 324 322 321 322 324 335 327 326 329 327 334 322 318 326 323 324 321 321 321 321 322 321 322 320 320 320 322 319 318 320 318 319 323 325 323 322 325 326 328 334 336 336 338 338 337 336 335 336 337 337 338 341 341 340 339 339 340 340 339 340 339 339 338 338 338 338 337 337 338 338 338 338 337 337 337 336 333 331 333 332 333 336 336 337 337 336 335 333 332 331 330 329 329 330 327 317
322 324 327 329 322 326 338 326 324 330 325 328 324 321 323 323 323 321 322 320 321 321 320 322 320 319 320 321 318 317 320 318 321 323 322 321 320 323 325 326 332 335 336 337 337 336 335 335 335 336 337 337 340 340 339 339 339 339 339 339 339 339 338 337 337 338 338 338 337 337 338 339 339 338 338 338 336 334 333 334 334 334 336 336 336 336 334 333 332 331 330 329 328 326 323 315 305
322 322 330 339 334 335 336 325 331 332 319 318 323 323 322 324 323 322 322 320 321 321 322 322 320 320 319 319 320 319 319 320 321 321 321 320 319 321 324 326 330 334 337 338 337 336 334 334 334 336 337 337 339 339 338 338 338 339 339 339 338 338 338 337 336 338 339 338 337 336 338 339 339 338 338 338 336 335 333 333 335 334 335 335 335 334 333 332 330 330 328 328 326 319 311 304 300
322 320 328 337 335 338 336 327 326 324 322 320 318 321 322 321 323 322 322 321 320 322 323 322 319 320 319 320 324 320 319 322 320 319 319 319 318 321 324 324 326 331 336 339 339 335 333 333 334 335 336 337 338 338 337 336 337 338 337 338 338 337 337 337 336 339 339 338 338 336 337 338 338 338 338 337 336 336 333 331 333 333 334 334 334 333 332 330 329 329 327 327 324 312 304 300 298
325 323 328 335 336 334 329 326 325 319 322 324 318 321 320 319 322 322 322 320 318 320 321 319 318 319 320 320 323 320 319 322 318 318 318 318 320 321 324 324 324 327 333 337 338 336 333 333 333 335 335 336 337 337 336 336 336 336 336 336 336 335 336 337 337 338 339 338 338 336 338 338 338 338 338 338 337 336 333 330 332 332 332 333 333 332 332 330 328 328 327 327 322 310 302 299 298
334 333 336 339 333 326 320 323 330 327 325 324 321 321 322 320 322 321 320 318 317 319 318 317 319 321 319 320 325 320 320 322 318 318 318 320 320 320 324 326 327 328 330 334 337 337 335 333 333 334 335 336 337 337 337 336 336 336 337 336 335 333 335 336 336 337 337 337 336 337 339 337 337 338 338 338 337 336 333 332 332 331 331 332 332 331 331 329 328 327 327 325 317 306 300 298 299
334 338 348 343 326 323 322 324 329 336 333 323 319 321 321 319 320 319 318 317 317 319 319 318 318 318 318 322 325 318 319 322 318 317 317 319 319 319 323 326 329 330 331 332 334 337 337 335 333 334 334 335 336 337 337 337 337 337 337 336 335 333 334 335 335 336 335 335 336 337 338 337 337 338 338 337 337 335 333 333 332 332 331 331 331 331 330 327 327 326 326 323 313 303 299 298 298
331 333 344 331 323 325 322 324 327 335 334 323 319 320 317 317 320 319 318 318 318 318 318 320 317 317 319 321 324 321 321 320 318 318 316 317 318 319 324 326 328 331 334 333 333 336 338 338 336 335 334 335 336 336 337 337 337 337 337 336 336 334 334 335 334 334 333 333 335 336 337 337 337 338 338 337 336 335 334 333 332 332 331 329 328 330 330 327 326 325 325 322 311 302 298 298 298
327 333 337 320 325 330 321 323 324 324 323 323 321 320 319 317 320 320 318 319 320 319 316 319 317 317 318 317 327 332 324 319 319 320 317 317 318 322 326 328 328 330 333 334 333 335 338 340 338 337 335 335 336 337 337 337 337 337 337 336 335 335 335 334 333 331 331 332 334 335 335 336 337 338 338 337 337 335 334 333 333 332 329 328 326 328 328 326 325 325 325 321 312 302 298 298 298
323 340 343 326 328 330 322 321 323 323 319 323 321 317 319 316 318 320 318 318 320 318 315 316 315 316 317 315 326 329 320 318 321 322 318 318 321 324 327 330 331 331 332 334 334 334 337 339 340 339 337 337 336 337 338 337 337 337 337 336 335 335 335 334 332 332 332 333 334 335 334 335 336 338 338 337 336 335 334 333 333 331 329 328 326 326 327 325 325 325 324 320 311 300 297 298 298
329 345 341 327 326 322 321 321 326 327 319 324 322 316 319 316 317 317 317 317 317 317 315 317 315 315 318 316 319 318 316 319 322 322 319 321 325 326 328 329 332 333 334 334 334 334 336 339 340 340 340 339 337 337 338 338 338 338 337 337 336 335 335 334 334 334 334 334 334 335 334 335 336 337 338 337 337 336 335 334 333 331 329 328 326 325 326 325 325 324 323 319 308 299 298 298 298
338 344 335 327 324 322 325 323 323 323 319 326 323 317 318 318 318 316 315 316 318 319 317 318 316 315 318 318 316 314 315 319 321 321 321 324 327 327 328 328 330 332 334 335 335 335 336 338 339 340 340 340 339 338 338 339 338 338 338 337 337 336 336 335 335 335 335 335 334 335 334 335 336 337 337 337 337 336 335 334 332 331 329 328 326 324 324 325 324 324 323 318 306 299 298 298 298
340 336 327 325 328 330 331 324 319 319 319 322 320 318 318 318 319 317 315 317 319 320 318 317 315 315 315 315 314 313 315 319 320 320 322 326 327 327 327 328 329 329 330 333 334 335 336 337 338 338 339 339 340 339 339 339 339 338 338 338 337 336 336 336 336 336 335 335 334 334 334 335 336 337 337 337 337 336 335 334 332 330 329 328 326 324 323 323 324 323 322 317 305 299 298 298 298
336 332 322 331 340 334 328 322 318 318 319 321 321 318 316 317 317 316 316 318 319 319 318 317 316 316 313 314 314 313 315 318 320 318 321 323 324 325 325 326 328 326 326 328 329 331 333 335 336 336 337 338 339 339 339 339 339 339 338 338 338 337 337 336 337 336 336 335 335 335 334 335 336 336 336 337 337 336 335 334 332 330 330 328 326 324 322 322 323 322 320 313 302 298 298 298 298
332 330 324 339 344 331 325 320 317 318 318 320 322 319 318 319 317 316 316 317 318 318 318 316 317 317 314 314 312 312 315 318 319 319 319 319 320 321 322 322 324 323 322 321 322 325 328 331 332 333 334 335 337 338 339 339 338 338 338 338 338 338 337 337 337 337 336 336 335 335 335 335 336 336 336 336 336 336 335 333 332 331 330 328 326 325 321 321 322 322 319 311 299 299 298 298 299
324 325 329 341 332 324 326 323 319 319 318 318 321 320 319 319 317 316 316 317 318 317 317 317 317 317 316 315 311 311 313 316 318 319 319 318 319 319 320 320 320 320 319 319 320 321 324 326 327 329 331 333 335 336 337 338 338 338 338 337 337 338 338 338 337 338 337 336 336 335 335 335 336 337 336 336 336 335 334 332 331 330 330 328 326 325 321 319 320 321 318 310 299 298 298 298 298
321 323 329 336 325 319 324 324 320 318 318 318 319 319 318 317 317 317 317 317 318 317 317 317 317 316 316 314 311 310 311 312 314 315 317 317 317 318 318 319 319 319 319 319 319 319 321 322 324 327 329 332 333 334 335 336 337 337 337 336 336 337 338 338 338 338 337 337 336 335 335 336 335 336 336 336 335 335 334 332 331 330 329 328 326 325 322 319 319 319 316 309 301 298 298 297 298
321 323 324 328 322 319 321 321 319 318 318 319 319 317 317 318 318 318 318 317 318 317 316 315 315 313 312 312 311 312 313 312 309 309 311 311 311 312 313 315 316 317 318 319 319 319 320 320 323 326 328 330 331 333 334 335 335 336 336 336 336 336 338 338 338 337 337 336 336 335 335 336 335 336 337 336 335 334 333 332 331 330 329 328 326 325 324 320 317 316 315 310 303 299 298 297 297
320 323 323 324 320 318 320 319 317 318 317 317 317 315 316 318 318 318 318 317 317 316 314 312 310 309 309 311 312 311 310 308 307 307 307 308 308 309 310 312 313 314 315 317 319 320 320 320 322 324 326 328 329 332 334 335 335 334 334 334 334 334 336 338 338 337 336 336 336 335 334 334 335 336 336 336 335 334 333 332 331 330 329 328 326 325 324 321 318 316 316 312 305 300 298 297 297
320 322 322 321 319 319 320 318 318 318 316 316 315 315 316 315 315 317 316 316 316 314 313 312 310 311 311 310 309 307 307 306 305 307 307 307 308 309 310 310 311 313 313 314 316 317 319 321 323 324 325 326 328 331 333 334 334 335 334 332 333 333 335 336 337 337 336 335 335 334 334 334 334 335 335 335 335 334 333 332 330 329 328 327 326 325 324 322 319 316 316 315 308 302 298 297 297
319 320 318 317 317 317 317 317 317 316 315 314 313 316 315 313 315 316 318 318 315 314 315 315 314 316 313 307 306 306 306 306 305 306 306 306 307 308 308 308 310 311 312 313 314 316 317 320 322 324 325 325 327 330 331 333 334 335 334 333 333 333 335 336 336 336 335 334 334 333 333 334 334 334 334 335 334 334 333 331 329 328 327 327 326 325 324 323 320 317 316 315 310 305 300 296 297
315 316 316 317 316 315 315 316 315 313 313 313 313 315 314 313 315 316 320 320 314 313 314 314 316 316 311 306 305 305 304 304 304 304 304 305 305 305 305 307 308 309 311 313 315 315 317 319 321 323 325 326 327 329 330 331 333 334 334 334 334 334 334 335 335 335 334 334 333 333 333 333 334 333 334 334 334 333 332 330 329 328 327 326 326 325 324 323 321 317 315 314 310 307 303 298 297
314 314 316 318 317 316 315 315 315 313 314 315 314 315 314 312 314 317 318 317 314 315 314 313 315 314 308 306 305 304 303 303 303 303 303 303 303 303 304 305 307 309 310 313 315 316 317 318 321 323 325 327 327 328 329 330 332 333 334 335 334 334 334 334 335 334 334 333 333 332 332 332 333 333 333 334 333 332 331 330 329 328 327 326 326 325 324 323 321 318 316 315 312 309 306 301 297
314 314 315 318 318 317 317 315 314 314 315 316 315 316 317 315 316 319 317 315 315 316 315 312 312 309 306 306 304 303 303 302 302 302 302 302 302 303 303 304 306 308 310 313 316 318 318 319 321 324 327 327 327 327 328 329 331 333 334 334 334 334 334 335 334 334 334 333 333 333 332 332 332 333 333 333 333 332 331 330 329 328 327 326 325 325 324 322 320 318 317 317 315 311 310 306 300
315 314 314 317 318 321 319 315 314 313 314 315 315 317 323 323 318 319 317 314 314 317 315 311 308 306 305 305 303 303 302 301 302 301 301 301 302 302 302 304 305 307 310 313 316 319 320 321 321 324 327 328 328 328 329 329 331 332 334 334 334 334 334 334 334 334 334 333 334 333 333 332 332 333 333 333 332 332 330 330 329 328 327 326 325 324 323 322 320 318 317 318 317 314 312 309 303
315 312 316 318 317 325 325 315 314 314 314 314 314 317 324 324 320 319 315 312 313 316 314 310 307 305 305 305 303 302 301 301 301 300 301 301 301 301 302 303 305 307 309 312 315 317 320 322 323 325 327 328 329 329 330 330 331 332 333 333 333 333 333 333 333 334 334 334 334 333 333 332 332 332 332 333 332 332 330 329 329 328 327 326 325 324 323 321 319 317 316 317 318 316 314 309 302
320 314 324 326 316 324 326 316 316 315 314 313 313 318 319 318 320 319 314 311 313 314 313 310 308 306 305 304 302 302 301 300 300 300 300 300 300 301 301 302 304 306 308 310 312 314 316 319 322 323 325 327 328 329 329 330 331 331 332 332 332 332 332 332 331 332 332 332 332 332 332 332 332 332 332 332 332 331 331 330 329 328 327 326 324 323 322 321 318 316 315 316 317 316 314 308 302
329 318 324 330 320 320 322 319 318 315 315 313 313 317 318 317 320 319 313 310 312 312 312 310 307 306 304 303 302 301 300 300 300 299 299 300 300 300 300 301 303 304 306 308 310 311 314 316 319 321 323 325 326 327 328 329 330 330 330 330 330 330 330 331 330 330 330 330 331 331 331 331 331 331 331 331 331 330 330 329 329 327 326 326 324 323 321 320 318 316 316 316 316 315 313 308 302
332 322 319 325 322 318 320 322 319 314 315 315 313 315 316 317 318 316 312 311 312 312 313 310 306 305 304 302 301 300 300 299 299 299 299 299 299 299 300 301 302 304 305 306 308 310 313 315 318 320 322 324 325 325 326 327 327 328 328 328 328 328 328 329 329 329 329 329 329 329 329 329 329 330 330 330 329 329 328 328 327 326 325 325 324 323 321 320 318 317 317 316 315 314 312 309 305
330 325 321 324 322 319 320 322 319 317 317 317 317 316 316 317 315 313 312 311 313 313 311 308 305 304 303 301 301 300 299 299 298 298 298 298 298 299 299 300 302 303 304 306 307 309 311 314 316 318 320 321 322 324 324 325 325 325 326 326 326 326 326 327 327 327 327 327 327 327 327 327 327 328 328 328 328 327 327 326 326 326 325 324 323 322 321 319 318 318 317 316 314 313 311 310 306
324 324 324 326 324 321 320 319 320 318 316 318 319 318 318 318 316 315 313 312 314 315 310 306 305 303 302 301 300 299 299 298 298 297 297 297 297 298 298 299 300 302 303 305 306 308 309 311 314 315 316 317 319 320 321 322 323 323 323 324 323 323 323 323 323 324 324 324 324 324 324 325 325 326 326 326 326 325 325 325 325 324 324 323 322 322 321 320 319 318 317 316 314 311 309 306 304
318 318 321 322 322 321 318 318 322 317 315 321 320 317 319 318 317 315 312 312 315 317 312 306 304 303 301 301 300 299 299 298 297 297 297 297 297 297 298 298 300 301 302 303 305 305 306 309 310 311 312 314 315 316 317 318 319 319 320 320 320 319 320 320 320 320 320 320 320 320 321 321 322 322 323 323 323 323 323 323 323 323 323 322 321 321 321 320 319 319 317 315 313 310 307 304 302
314 316 318 320 320 320 319 319 319 315 315 322 319 315 319 319 316 314 313 315 315 313 311 305 303 303 301 301 300 299 299 298 297 296 296 296 296 296 297 297 298 299 299 301 302 303 305 306 307 308 309 311 312 312 314 315 315 316 317 317 317 317 316 316 316 315 315 316 316 316 317 318 319 319 319 318 318 318 318 319 319 319 320 320 320 319 318 318 318 317 315 313 311 309 307 305 301
316 317 317 320 321 321 322 322 319 314 315 321 320 315 318 319 315 313 313 315 310 307 307 305 303 302 301 300 299 299 299 298 297 296 295 295 295 296 296 296 296 297 298 299 301 302 303 304 305 306 307 308 309 310 311 311 311 313 313 313 313 312 311 311 311 310 310 311 310 310 311 312 313 314 315 315 315 314 314 315 315 315 316 315 316 315 315 315 315 315 314 312 309 306 304 303 301
319 319 318 321 321 320 324 325 321 317 315 317 319 317 318 316 314 313 309 308 306 304 304 304 303 302 301 300 299 299 298 298 297 296 295 295 295 295 295 295 295 296 297 298 299 300 301 302 303 304 305 305 306 307 308 308 309 310 310 309 310 309 308 308 308 307 306 306 304 304 305 305 306 307 309 310 311 311 311 311 311 312 312 312 312 312 311 312 312 312 312 311 308 304 302 301 300
324 323 320 320 321 321 323 323 321 321 321 318 316 320 324 320 317 315 308 306 305 303 303 302 302 301 301 300 299 299 298 298 297 297 295 294 294 294 294 295 295 295 295 296 297 297 299 300 301 302 303 304 304 305 306 307 307 307 307 307 307 306 305 305 304 304 303 303 302 302 302 302 302 302 304 304 306 307 308 308 308 309 309 309 309 309 309 309 309 309 309 308 306 304 303 301 300
325 327 323 320 320 321 321 320 319 321 326 322 315 324 333 328 322 317 309 308 307 304 304 303 302 301 300 300 299 299 298 297 296 296 295 294 293 294 294 294 294 294 294 295 295 296 297 298 299 300 301 302 303 303 304 305 305 305 305 304 303 302 301 300 300 301 302 302 302 302 302 302 301 301 301 301 302 302 303 304 305 306 306 306 306 307 307 307 307 307 307 306 305 304 303 300 299
323 324 324 322 319 319 321 320 320 324 327 321 316 324 330 325 324 321 311 309 308 304 304 303 302 301 300 300 300 298 298 297 296 295 293 293 293 293 293 293 293 293 293 294 295 295 296 297 297 298 299 299 300 301 302 303 303 302 302 301 300 299 298 298 299 300 300 301 301 301 301 302 301 301 301 301 300 300 300 301 301 302 303 303 304 304 305 305 305 305 305 305 304 304 303 299 299
326 323 323 326 322 320 323 321 321 324 322 321 323 322 322 320 324 322 312 310 310 306 305 304 302 301 300 300 299 298 298 297 297 296 294 292 293 292 292 292 292 293 293 293 294 294 294 295 296 296 297 297 298 299 300 300 300 300 300 299 299 298 298 298 298 299 299 300 300 300 300 300 300 301 301 301 300 300 300 300 300 300 300 300 300 301 302 303 303 303 303 302 302 302 302 300 299
326 320 319 325 323 322 327 324 322 322 316 322 328 319 318 323 325 321 313 312 313 308 305 304 302 301 300 300 299 298 298 297 296 296 294 292 292 292 292 292 292 292 293 293 293 293 294 294 295 296 296 296 296 297 298 298 298 298 298 297 297 297 297 297 298 298 298 299 299 298 299 299 299 299 299 299 299 299 299 299 299 299 299 299 299 299 299 300 300 301 301 301 301 300 300 300 299
320 319 320 325 324 324 328 325 323 323 318 322 325 320 320 325 327 325 317 315 316 309 304 303 302 302 301 300 300 299 298 298 296 294 293 293 292 292 292 292 292 292 292 292 293 293 293 294 295 295 294 295 295 296 296 296 296 296 296 296 295 295 295 296 296 296 296 296 296 296 297 297 297 298 298 298 298 298 298 299 299 299 299 299 298 298 298 298 298 298 299 299 300 300 300 299 298
315 320 326 330 328 326 328 326 323 322 322 323 324 321 319 323 330 328 319 317 316 310 305 303 302 302 301 300 300 299 298 298 297 294 292 292 292 292 291 291 291 291 291 292 292 292 292 292 293 293 293 293 294 294 295 295 295 295 294 294 294 293 293 294 293 293 293 293 293 293 294 294 295 295 295 296 296 296 297 297 298 298 299 299 298 298 298 297 297 297 297 297 298 298 299 299 298
318 324 326 327 329 328 326 326 324 322 324 328 324 318 315 321 328 323 315 314 312 310 307 303 302 302 301 301 300 299 298 298 297 296 293 292 292 291 291 291 290 290 290 290 290 290 290 290 291 291 291 291 292 293 293 293 293 293 292 292 291 291 291 291 290 290 289 289 289 289 290 290 291 291 292 292 293 294 294 295 296 297 298 298 298 298 298 297 297 297 297 296 297 297 297 298 298
320 322 323 323 324 325 324 324 324 323 324 323 320 316 316 320 321 316 312 311 309 309 307 302 301 301 300 300 300 299 299 298 298 297 294 292 291 291 291 290 290 290 290 289 289 288 288 288 289 289 288 288 289 289 290 290 289 289 289 288 288 288 288 288 287 287 286 286 286 286 286 286 287 287 287 288 289 290 291 292 293 294 295 296 296 297 297 296 296 296 296 296 296 296 296 296 297
317 318 322 323 322 323 326 324 320 322 323 319 316 316 319 320 317 312 308 305 304 306 305 302 301 300 299 300 300 299 299 298 298 297 295 292 291 292 291 290 290 289 289 289 288 288 288 287 287 287 286 286 287 287 287 287 286 286 286 286 286 286 286 285 285 285 285 285 285 285 285 285 285 285 285 285 286 286 287 288 289 290 291 292 293 294 294 294 295 295 295 295 295 295 295 295 295
314 319 320 322 325 327 327 325 323 325 327 320 314 316 324 324 315 306 303 302 301 303 302 301 300 299 299 299 299 299 299 298 297 297 294 292 292 292 291 290 290 289 289 289 289 288 288 287 287 287 286 286 286 286 286 285 285 285 285 285 285 285 285 285 285 285 285 285 285 285 285 285 285 285 285 285 285 285 285 285 286 286 286 287 288 289 290 291 293 293 294 294 294 294 294 294 295
315 317 318 318 323 325 322 323 325 326 326 322 319 322 324 317 307 302 303 302 300 301 300 300 300 299 299 299 299 299 299 298 297 297 294 292 292 292 291 290 289 288 288 288 288 288 288 288 287 287 287 286 286 286 286 286 285 285 285 285 285 285 285 285 285 285 285 285 285 285 285 285 285 285 285 285 285 285 285 285 285 285 285 285 285 286 286 287 288 289 291 292 293 293 293 294 294
316 314 319 320 319 321 322 323 320 318 321 322 321 322 318 310 307 305 304 302 300 300 300 299 299 299 299 300 300 299 299 298 298 297 294 292 292 292 290 289 288 288 288 288 288 288 288 288 287 287 287 287 287 287 286 286 286 286 286 286 286 286 286 286 286 286 286 286 286 285 285 285 285 286 285 285 286 286 285 285 285 285 285 285 285 285 285 285 286 286 287 288 289 291 292 293 293
319 318 322 319 316 321 325 325 321 318 321 321 319 320 318 315 313 307 303 304 302 300 300 299 299 300 300 300 299 299 299 299 298 296 292 291 292 292 290 289 288 288 288 287 288 287 287 287 287 287 287 287 287 287 287 286 286 286 286 286 286 286 286 286 286 286 286 286 286 286 286 286 286 286 286 285 285 285 285 285 285 285 285 285 285 285 285 285 285 285 285 285 286 287 289 290 291
318 321 319 317 320 324 322 322 324 322 321 322 322 320 318 318 317 312 309 309 304 301 300 300 300 299 299 299 299 299 299 298 298 296 293 292 292 292 291 290 289 288 288 287 287 287 287 287 287 287 287 287 287 287 287 287 286 286 286 286 286 286 286 286 286 286 286 286 286 286 286 286 286 286 286 286 286 285 285 285 285 285 285 285 285 285 285 285 285 285 285 285 285 285 286 286 287
314 316 315 317 321 323 321 319 322 323 320 321 321 318 320 323 319 317 316 309 303 302 301 300 299 298 298 299 298 298 298 297 297 297 294 292 292 293 292 291 291 290 289 288 287 287 287 287 287 287 287 286 287 287 287 287 287 286 286 286 286 286 286 286 286 286 285 285 285 285 285 285 285 285 285 285 285 285 285 285 285 285 285 285 285 285 285 285 285 285 285 285 285 285 285 285 285
314 316 316 317 316 319 321 318 318 322 320 321 319 316 322 322 312 313 315 308 303 303 302 300 299 298 298 298 298 298 297 296 295 296 294 292 292 293 292 292 292 291 290 289 288 287 286 286 286 286 286 286 286 286 286 286 286 286 286 285 285 285 285 285 285 285 285 285 285 284 284 284 284 284 284 284 284 284 284 284 284 284 285 285 285 285 284 284 284 284 284 285 285 285 285 285 285
320 320 319 320 318 318 320 318 318 318 318 320 318 316 321 318 308 309 312 307 303 302 302 301 300 300 299 299 298 297 296 296 296 294 293 291 292 292 292 292 292 292 291 290 289 288 287 287 286 286 286 286 286 286 286 286 286 286 285 285 285 285 285 285 285 285 285 285 284 284 284 283 283 283 283 283 283 283 283 283 283 283 283 284 284 284 284 284 284 284 284 284 284 284 284 285 285
Wind_Speed
8 8 7 8 9 7 4 4 3 2 4 3 2 1 1 2 1 2 1 2 1 3 4 2 2 3 1 3 5 5 5 5 5 3 3 4 3 11 17 18 11 11 18 21 27 30 30 29 28 27 25 25 23 23 23 22 22 21 20 19 18 16 14 13 13 12 11 11 10 11 11 11 10 11 11 11 9 9 10 10 9 8 8 8 8 8 8 7 7 6 6 6 6 6 7 6 6
7 6 5 6 7 4 1 3 4 3 5 3 2 1 2 3 3 3 5 3 3 4 3 2 1 1 2 2 3 2 2 5 5 3 3 1 3 12 18 18 13 12 18 20 26 30 30 29 28 27 26 26 25 25 24 23 23 21 21 19 18 17 15 14 14 13 12 12 10 10 11 12 11 11 11 10 9 9 10 9 9 8 7 8 8 8 8 7 5 5 5 5 5 6 6 5 4
7 6 6 5 4 3 1 4 4 2 5 3 2 3 1 2 1 5 7 6 7 4 1 1 0 1 4 3 1 3 3 4 3 2 1 3 4 10 18 16 12 13 17 19 25 29 30 29 28 28 26 26 25 26 25 24 23 22 21 20 19 17 16 16 15 15 13 13 12 10 11 11 11 10 10 9 8 9 10 9 9 8 7 8 7 8 8 7 5 3 3 3 6 6 6 5 3
7 7 8 5 2 3 4 4 3 4 4 2 1 4 3 3 5 6 7 6 6 1 2 1 1 2 3 1 1 1 3 3 3 4 1 7 6 9 17 14 12 14 17 18 23 28 30 30 28 28 27 26 23 25 25 24 24 23 22 20 20 18 17 17 16 16 14 14 13 12 11 10 10 10 9 8 8 8 9 9 9 9 8 8 8 8 7 6 4 2 2 2 5 7 6 5 3
6 6 6 3 3 2 3 3 2 4 3 4 2 4 5 6 5 4 5 5 4 0 2 2 1 2 1 2 2 1 4 2 3 5 4 9 8 9 14 12 13 16 18 19 21 26 30 30 29 28 27 26 23 24 24 23 23 22 22 21 20 19 18 17 17 16 15 15 15 13 12 11 10 10 10 8 8 7 8 9 10 9 8 8 8 7 6 5 3 2 1 1 3 6 6 4 3
6 4 3 4 2 1 3 3 2 0 4 5 4 5 6 6 5 2 3 5 2 1 2 2 0 1 1 3 2 2 4 1 2 6 6 9 9 10 13 12 15 16 18 19 20 24 28 30 29 28 27 27 23 23 25 24 22 20 21 20 19 20 18 18 18 17 16 15 15 15 13 12 11 11 11 10 9 8 8 9 10 9 9 8 8 6 6 4 2 1 1 1 2 6 5 3 2
7 4 3 4 2 2 5 3 2 2 3 4 5 6 6 7 5 3 4 3 2 2 0 1 1 2 1 3 1 2 1 3 3 5 7 9 10 12 13 13 15 16 18 18 19 22 27 30 29 28 28 27 24 24 25 24 22 19 19 19 18 19 18 18 18 18 17 16 16 15 14 13 12 12 12 11 10 9 9 10 10 11 10 9 8 6 5 3 0 1 0 0 2 4 4 2 1
6 3 1 4 2 3 4 2 3 2 1 2 3 6 7 7 5 3 2 0 1 2 1 2 1 2 2 3 1 3 1 5 5 6 8 9 11 14 14 14 15 16 18 18 18 20 25 29 29 29 28 28 26 25 26 25 23 20 20 19 18 18 17 17 18 18 17 16 15 15 15 13 13 13 13 13 11 10 10 11 10 11 10 9 8 7 6 4 2 2 1 1 3 3 1 1 2
4 3 1 3 2 3 2 1 2 2 3 4 2 3 4 5 3 4 1 2 1 1 3 4 1 1 4 5 3 5 2 5 7 8 9 10 11 14 15 14 14 16 17 18 17 18 23 27 29 29 28 28 27 25 26 25 24 21 21 20 20 19 18 18 17 17 17 16 15 15 15 14 14 14 14 14 13 12 10 10 11 11 11 10 9 9 8 6 4 3 3 4 5 3 1 2 5
4 3 2 3 3 4 4 2 1 1 5 4 3 4 4 2 2 4 2 2 1 0 5 3 1 2 3 3 4 3 1 5 8 9 9 10 11 13 15 13 13 15 16 18 17 18 21 26 28 29 29 28 28 26 26 26 25 22 21 21 21 21 20 19 18 18 18 16 16 16 15 15 15 15 15 14 14 13 11 11 12 11 11 11 10 10 9 8 5 4 5 5 6 4 1 4 6
3 4 3 4 4 3 1 2 3 4 6 5 4 6 4 2 3 3 2 1 2 2 3 2 1 3 2 3 4 3 2 7 8 9 9 10 11 13 15 14 14 15 15 17 17 18 19 24 27 28 29 29 28 27 26 26 25 23 22 22 22 22 21 20 20 20 20 18 17 16 16 16 15 15 15 15 15 14 12 11 11 10 10 10 10 9 8 7 7 7 5 6 5 3 3 5 6
3 4 3 4 2 2 2 2 5 5 6 4 2 5 2 2 3 1 1 1 2 4 2 1 1 2 2 4 4 3 3 9 8 6 8 10 10 11 14 16 15 16 15 15 16 18 19 21 25 28 29 29 29 28 27 27 26 24 23 22 22 22 22 22 21 21 21 20 18 17 17 16 15 16 16 16 16 15 13 12 11 10 10 9 9 8 7 6 7 7 7 8 5 2 4 6 6
3 1 4 3 2 2 2 2 4 3 5 2 3 4 1 2 0 4 3 1 1 4 3 6 3 2 1 4 4 5 3 10 8 6 8 9 10 11 15 16 16 17 17 16 16 18 19 21 23 26 28 29 29 29 28 27 27 26 24 23 23 22 22 22 22 21 22 21 20 19 19 18 16 17 17 16 16 15 13 12 11 10 9 8 8 9 8 7 7 7 10 10 5 2 4 6 6
2 2 4 1 0 0 2 1 3 2 2 4 3 4 2 1 3 6 4 2 4 2 3 6 5 3 2 3 5 4 3 9 9 8 8 9 10 12 15 15 16 17 18 18 18 18 19 21 22 24 27 29 30 30 29 28 28 27 26 25 24 23 22 22 22 21 21 22 21 21 20 19 17 18 19 17 16 16 15 13 12 10 9 7 6 9 10 9 9 10 12 10 6 3 5 6 6
3 2 4 3 2 3 1 1 1 4 1 4 3 2 2 2 2 2 1 1 5 4 1 2 4 2 3 1 4 5 2 5 10 10 10 10 11 12 14 15 15 16 18 20 19 19 20 21 23 24 26 28 30 31 31 30 29 28 27 26 25 25 23 22 22 22 22 22 22 22 21 20 18 19 20 19 17 17 16 14 13 11 9 7 6 10 11 10 11 12 13 10 7 5 6 7 7
3 3 5 3 1 2 1 1 2 3 2 5 3 1 2 4 2 0 3 3 4 4 0 3 3 2 4 5 7 6 5 4 10 11 11 11 12 12 13 15 16 16 18 20 21 21 21 22 23 24 26 28 30 31 32 31 30 29 28 27 27 26 25 23 23 23 22 22 22 23 22 21 20 19 21 21 19 18 17 15 13 11 9 8 6 10 12 11 11 13 13 11 8 7 7 8 8
3 4 4 2 1 2 3 2 2 1 5 5 6 2 1 5 2 1 1 4 3 6 3 5 3 2 5 6 6 6 6 5 10 11 11 12 13 13 13 14 16 17 19 20 21 22 22 23 24 25 27 28 30 31 32 32 31 30 30 28 28 27 26 25 24 23 23 23 23 23 23 22 21 19 21 22 21 19 17 16 14 12 10 9 8 10 12 12 11 13 12 12 10 8 8 8 8
4 4 3 0 3 3 5 4 3 1 3 5 5 0 3 4 4 3 2 4 5 7 8 5 4 5 8 12 11 9 7 7 11 13 13 12 12 13 15 15 17 19 20 21 22 23 24 24 24 25 26 28 29 31 32 32 31 31 30 30 29 28 27 26 25 24 24 23 23 24 24 24 22 20 21 23 22 20 18 17 15 13 11 10 10 10 12 13 13 12 10 12 12 9 9 9 9
3 3 2 2 5 5 5 6 4 1 3 5 5 2 3 4 2 1 2 4 6 7 11 7 7 9 9 12 13 10 6 9 12 14 14 15 15 15 16 17 19 20 21 22 22 23 24 25 25 26 26 27 29 31 32 32 32 31 31 31 30 30 29 28 27 25 24 24 24 24 24 24 23 21 22 23 23 22 19 17 15 14 13 12 11 11 13 14 15 13 10 12 13 11 11 11 10
2 4 1 5 6 5 5 5 6 5 4 3 6 3 3 4 2 1 2 4 6 6 9 8 10 12 8 6 7 6 5 9 13 15 16 17 19 19 19 19 21 23 22 21 21 22 24 25 26 27 27 27 29 31 32 33 32 32 32 32 32 31 30 29 28 27 25 24 24 24 24 24 23 22 23 24 23 22 20 17 16 15 15 14 13 12 14 15 15 15 13 14 14 13 12 12 12
2 3 4 6 4 2 7 5 4 5 3 3 4 4 7 5 1 1 3 5 7 7 7 7 10 14 12 6 3 4 7 10 13 15 17 18 20 21 22 23 24 24 21 19 20 22 24 25 26 26 27 27 28 30 32 33 32 32 32 32 33 32 32 31 30 28 27 26 25 25 25 24 24 23 24 24 24 23 21 19 18 18 17 16 15 14 15 16 16 16 17 17 15 14 14 13 12
2 3 6 6 4 3 8 5 2 2 0 2 3 5 6 3 2 1 1 3 6 7 7 8 10 11 12 11 7 5 6 9 12 14 16 18 20 21 23 25 25 23 21 21 21 21 22 24 25 25 26 27 28 29 30 32 32 32 32 32 32 33 32 32 31 30 29 27 26 26 25 24 24 24 25 25 25 24 22 21 21 20 19 18 17 16 16 17 19 20 20 18 15 15 15 13 13
3 4 4 5 5 4 6 3 3 3 2 4 2 4 3 3 6 3 3 7 9 10 8 7 10 12 13 12 9 8 7 7 8 8 10 13 16 16 17 19 21 20 21 22 21 19 20 21 24 26 26 26 27 28 29 30 31 32 32 31 31 32 33 32 32 31 30 29 28 27 26 25 25 26 27 26 26 25 24 23 22 22 21 20 19 18 18 19 20 22 22 19 17 17 16 15 14
4 4 4 5 5 6 5 3 5 4 4 6 2 3 4 3 5 3 5 11 12 11 7 6 10 13 13 9 7 7 7 8 8 10 13 13 12 11 10 10 12 14 17 19 19 19 20 20 23 25 26 26 26 27 28 29 30 31 31 31 31 32 32 33 33 32 31 30 29 28 27 26 26 27 28 27 27 26 25 24 23 23 22 21 20 20 20 20 22 23 23 22 19 18 17 16 15
4 5 4 3 3 5 6 6 8 7 6 5 1 5 9 7 2 3 11 15 13 7 5 6 7 9 8 7 8 8 9 12 14 16 18 19 18 17 16 14 9 5 6 10 15 17 18 19 21 24 25 25 26 26 27 28 29 29 30 30 30 31 32 33 33 32 31 30 30 29 28 28 28 29 29 29 28 27 26 25 25 24 23 22 22 22 22 22 23 24 24 24 21 19 18 17 16
4 5 3 4 5 6 6 7 8 7 5 2 2 10 11 4 3 4 12 15 10 3 5 7 6 7 7 9 10 10 10 13 15 15 17 21 23 22 21 20 16 13 10 6 7 10 12 15 18 21 23 23 25 26 26 27 28 29 29 29 29 30 31 32 32 31 31 30 30 30 29 29 29 30 30 30 29 28 27 26 26 25 24 23 23 23 23 22 23 25 25 25 22 20 18 17 17
4 3 4 5 6 7 5 7 9 5 5 4 6 12 9 3 2 3 10 11 5 5 5 6 6 7 8 10 9 10 11 13 15 15 18 23 25 24 23 22 20 18 15 12 7 3 6 9 12 15 18 21 24 25 25 26 27 28 28 28 28 29 29 30 30 30 30 30 30 30 29 29 30 30 30 30 29 29 28 27 27 26 25 25 24 23 23 23 24 25 26 25 23 21 19 17 17
2 1 6 7 6 8 7 7 8 3 4 6 8 7 5 2 1 6 11 9 5 7 6 4 6 6 9 9 8 9 10 13 16 18 18 19 20 22 22 23 22 20 18 16 13 6 2 5 7 11 14 18 21 22 23 24 25 26 26 27 27 27 27 28 28 28 28 28 28 28 28 29 30 30 30 30 29 29 28 27 27 27 26 26 24 24 23 23 23 25 26 26 24 22 19 18 18
0 2 4 8 7 8 10 6 3 3 2 5 8 2 4 1 6 11 11 7 7 8 6 5 7 7 8 7 7 8 10 14 17 19 18 18 19 21 22 23 22 20 19 17 14 11 5 1 5 9 13 16 18 19 20 21 23 24 24 25 25 26 26 26 27 26 26 26 26 26 26 27 29 30 30 30 29 29 29 28 28 28 27 26 25 24 23 23 24 25 26 26 25 23 22 21 21
2 2 1 5 7 6 9 2 2 2 2 5 6 1 6 6 9 12 9 6 7 9 8 7 7 7 7 6 7 7 10 15 16 18 19 20 21 21 22 22 22 21 19 18 16 15 12 6 0 6 10 14 15 16 18 19 20 21 21 22 22 22 23 24 25 25 25 24 24 25 25 26 27 29 30 30 29 30 30 29 28 28 27 26 25 24 23 23 24 26 26 26 25 24 23 23 23
1 2 1 2 2 5 9 3 1 1 1 3 4 2 6 8 10 11 7 2 4 7 8 7 7 6 6 6 7 7 10 14 16 19 20 21 21 22 23 23 23 22 20 20 19 18 16 13 8 2 4 9 12 14 15 16 16 17 18 18 18 18 19 20 21 22 23 23 24 24 25 25 26 27 29 30 30 30 30 30 29 28 27 26 25 24 23 23 24 25 26 25 25 24 23 22 24
2 0 3 3 2 5 11 7 3 4 1 4 4 3 6 8 11 11 4 3 4 5 6 6 6 6 6 5 6 6 7 12 17 20 21 21 21 22 23 23 24 23 22 21 20 19 18 17 14 11 7 2 3 7 9 10 11 11 12 12 12 13 14 16 17 18 20 21 22 23 24 25 25 26 28 29 30 30 30 30 30 28 27 27 25 24 23 23 24 24 25 25 25 24 23 22 24
3 1 3 3 3 2 7 6 1 4 1 2 2 2 4 6 9 11 4 3 5 5 5 6 6 6 6 5 6 5 5 9 13 18 21 20 21 21 22 23 23 24 24 23 22 21 21 20 17 16 15 12 8 4 2 3 4 5 6 6 6 6 9 11 13 13 14 16 17 18 20 22 24 26 28 29 30 30 30 30 30 29 28 27 26 24 23 24 24 25 25 25 25 24 24 24 24
4 1 3 4 4 3 3 5 5 3 4 0 1 2 5 9 10 12 9 4 6 5 5 6 5 5 5 5 6 6 6 7 9 14 19 20 20 21 22 23 23 24 25 25 25 25 24 23 21 20 19 17 15 12 10 8 7 6 6 5 4 3 3 4 6 7 8 10 11 12 14 16 20 23 25 27 28 28 28 29 29 28 27 27 25 24 24 24 24 25 25 25 25 25 25 25 25
4 3 3 4 3 4 5 4 4 3 4 2 4 3 8 12 10 11 10 7 6 5 6 6 6 6 5 6 6 6 7 7 9 13 17 19 21 22 23 24 25 25 26 26 26 26 26 25 23 22 21 19 17 15 14 13 13 13 12 12 11 10 8 6 4 2 1 2 4 5 7 10 13 17 20 23 24 24 25 26 27 27 26 26 25 25 24 24 25 25 26 26 26 26 26 26 25
6 5 4 4 4 5 6 5 5 2 2 5 6 6 8 11 11 9 7 6 5 5 7 6 5 6 5 6 6 6 7 6 8 14 18 19 21 23 23 25 25 26 27 27 27 27 27 26 24 24 22 19 17 15 14 13 13 13 12 13 13 13 11 10 9 8 7 6 5 5 3 3 6 9 13 15 17 18 20 22 24 25 25 25 25 26 26 26 26 27 28 27 27 26 26 24 23
2 2 2 4 5 6 5 5 6 2 1 7 6 5 8 10 10 7 6 6 5 5 7 6 5 5 5 6 6 6 6 5 9 14 18 21 22 24 24 25 26 27 28 28 28 28 27 26 26 26 23 20 19 19 17 15 14 12 12 13 13 13 12 11 12 11 11 10 9 8 8 6 4 3 4 6 8 10 13 16 19 21 22 23 25 27 27 28 28 28 28 27 27 26 25 24 23
2 3 4 5 5 7 6 5 7 1 2 6 3 2 8 10 9 6 6 6 6 4 6 6 6 6 4 5 6 5 5 4 8 13 17 21 22 23 25 27 27 28 28 29 29 28 27 27 26 25 23 21 21 21 19 19 19 16 15 15 14 13 13 13 14 14 13 11 10 10 9 7 6 6 6 6 7 7 7 9 12 16 19 21 24 25 27 27 27 28 28 26 25 26 26 25 24
4 2 2 5 4 4 6 5 5 2 2 4 3 2 8 11 6 5 6 4 5 5 6 6 5 6 5 5 5 5 5 5 7 10 15 19 19 22 25 26 27 27 28 29 29 28 28 27 26 25 23 22 21 19 19 20 19 17 17 16 15 15 16 15 15 15 14 12 12 11 9 8 6 5 5 6 7 9 9 9 9 11 14 17 21 23 24 25 26 27 27 26 25 24 24 23 25
3 3 3 5 4 1 4 5 5 4 1 2 3 3 7 9 3 6 6 5 6 7 8 7 5 6 5 5 5 5 5 6 6 7 11 15 18 21 23 24 26 27 29 29 28 28 28 27 26 25 24 23 21 19 19 19 18 17 17 16 15 15 16 14 14 15 14 14 14 13 12 11 9 7 6 6 6 7 9 9 10 10 10 12 15 18 20 21 23 25 26 27 25 22 22 23 25
4 5 6 5 5 6 6 4 4 5 4 2 2 5 5 7 4 2 3 4 7 6 7 8 6 6 5 5 5 5 5 5 5 6 8 13 17 20 22 23 25 28 28 28 28 28 27 27 26 25 25 24 22 20 19 17 17 17 16 16 15 15 16 16 16 17 16 16 16 15 15 14 13 11 9 8 7 7 7 8 9 10 10 10 10 12 16 19 20 22 23 25 25 23 22 23 24
4 5 9 9 7 7 5 2 5 4 5 3 3 3 5 4 3 2 4 3 5 5 5 6 5 5 5 5 5 5 5 4 5 6 7 11 15 18 22 24 25 27 27 27 28 28 27 27 26 25 25 24 23 22 19 17 18 18 18 19 19 20 20 21 20 19 17 16 15 14 14 14 14 15 14 13 12 10 9 8 9 10 10 11 11 10 10 13 17 19 21 23 25 25 23 20 21
3 5 7 8 5 4 4 1 2 0 4 4 3 1 6 4 3 4 5 4 4 4 5 5 4 4 4 4 4 4 4 5 5 6 8 10 14 17 21 23 24 24 24 26 28 28 28 28 27 27 27 26 24 22 20 20 21 21 22 23 22 22 21 20 20 19 18 16 14 13 13 12 11 12 12 12 13 13 12 11 10 10 10 11 11 11 10 10 12 16 19 21 23 24 24 21 21
3 4 4 5 5 4 4 5 4 3 3 5 4 2 4 5 4 5 6 7 3 3 4 4 3 3 4 4 3 3 4 4 4 5 7 10 14 17 19 21 22 22 23 26 28 29 29 29 29 28 28 27 25 23 22 22 23 23 22 22 22 21 20 19 18 17 16 15 15 16 15 14 12 11 10 10 10 11 11 12 12 11 11 11 12 12 11 11 11 12 15 18 20 22 24 24 24
6 4 5 6 5 5 4 6 2 1 2 4 4 1 3 5 6 3 5 6 4 5 5 4 4 4 4 4 3 3 4 4 4 5 6 10 14 16 18 20 21 23 24 26 27 27 28 28 28 29 29 28 26 25 24 24 24 23 23 23 23 22 20 19 17 16 16 15 16 17 16 15 14 13 12 12 11 11 11 10 10 11 12 12 13 13 13 13 12 12 13 15 16 18 21 23 25
4 4 6 5 6 5 5 5 3 3 2 5 5 3 2 5 5 3 2 3 6 5 5 5 5 4 5 4 3 3 4 4 4 6 8 11 14 16 18 21 22 23 23 24 25 26 27 27 28 29 29 28 27 26 26 26 26 26 26 26 25 24 22 21 20 21 20 19 19 20 18 17 16 14 14 13 13 12 12 11 10 10 10 11 12 13 14 14 14 14 14 15 16 16 18 19 22
5 6 6 6 6 5 4 3 4 3 4 6 8 9 6 4 5 3 3 3 5 7 6 6 6 5 5 4 3 4 3 3 4 6 8 12 15 17 19 21 22 22 23 24 25 26 26 27 27 29 28 27 27 27 27 28 28 29 29 29 28 28 27 26 27 27 26 25 26 25 24 22 21 19 18 17 16 15 14 12 11 10 9 10 11 12 13 13 14 15 15 15 16 17 17 18 20
6 5 5 3 4 4 4 4 4 1 6 6 6 7 6 5 5 2 2 5 2 7 9 11 10 7 6 5 4 4 3 4 4 4 6 10 13 16 18 19 20 22 23 24 25 25 26 26 27 28 28 27 27 27 28 28 29 29 29 29 29 29 28 29 29 29 29 29 29 28 27 27 26 25 24 24 23 21 19 16 13 11 11 11 12 13 13 14 15 15 16 16 16 17 17 18 19
5 5 5 3 2 3 3 3 0 3 7 5 4 5 2 6 5 3 5 6 6 4 8 13 13 10 7 6 5 4 4 4 4 3 4 6 10 12 15 17 19 20 21 22 23 24 25 26 27 29 28 27 27 27 28 29 29 29 29 29 29 28 28 28 28 28 28 28 28 28 29 29 28 28 28 27 27 25 24 22 19 17 15 13 13 14 14 15 16 16 16 16 17 17 18 18 20
4 5 5 4 2 1 3 4 2 4 6 3 3 4 1 5 3 4 5 6 7 3 5 9 10 10 8 6 5 4 4 4 3 3 3 5 9 11 13 15 17 18 18 19 21 22 24 25 26 28 27 26 27 27 28 29 29 29 29 29 28 27 28 27 27 26 26 26 26 27 27 27 27 27 27 26 25 25 24 24 23 21 19 18 16 15 15 15 16 16 16 16 17 18 18 19 19
4 4 5 5 5 4 4 4 3 4 5 3 1 3 3 3 2 3 4 5 5 4 7 8 7 7 6 5 5 4 4 4 3 4 4 6 9 11 13 14 15 16 17 18 19 19 21 22 23 25 25 24 25 26 26 27 27 27 27 27 27 26 25 25 24 24 23 23 23 24 24 24 24 23 23 23 23 23 23 23 22 22 22 21 20 20 19 17 17 16 16 16 17 17 18 19 19
1 3 4 3 5 5 3 3 5 4 2 3 2 3 3 3 1 3 3 4 5 6 7 8 7 5 5 5 4 4 4 4 4 4 4 6 9 11 12 13 14 15 16 16 16 16 17 19 20 22 21 21 22 22 23 23 24 25 25 24 24 23 22 22 22 22 22 22 22 22 23 23 22 22 21 22 22 22 22 22 22 22 21 21 21 21 21 21 20 19 18 18 17 17 17 18 19
1 2 3 4 4 6 2 3 1 3 1 4 2 2 3 1 1 2 3 5 5 5 5 7 6 6 6 5 5 5 5 5 4 4 5 7 9 10 11 13 14 14 14 14 13 13 14 16 18 19 18 17 18 18 19 20 21 21 22 21 21 21 21 21 21 21 21 21 22 23 23 23 23 23 23 23 23 23 23 23 23 23 22 22 22 22 22 22 21 21 21 20 20 19 18 18 19
5 3 5 3 2 4 3 1 2 1 3 4 1 3 4 2 2 1 2 2 3 3 4 5 5 6 6 6 6 5 5 5 5 5 6 8 10 11 11 12 12 12 12 12 12 12 13 14 15 16 16 15 15 15 17 18 18 19 18 19 19 19 19 19 19 20 21 21 22 23 23 24 24 24 25 25 25 24 24 24 24 24 24 24 24 24 24 24 23 22 22 21 21 21 21 20 20
5 4 4 3 2 1 1 2 2 2 3 3 4 4 3 3 4 2 4 7 7 5 4 5 7 8 7 7 6 5 5 5 5 5 5 8 10 11 11 11 11 11 11 11 11 11 11 12 13 14 14 14 13 13 14 15 16 16 15 16 17 17 18 19 19 19 20 21 21 22 23 23 24 24 25 25 26 26 26 26 26 26 26 25 25 25 25 26 26 26 25 24 23 22 22 23 22
2 1 1 1 2 3 2 2 3 2 3 3 4 4 3 5 4 5 7 9 9 8 6 8 9 8 7 6 6 6 6 6 6 6 5 8 11 12 12 13 12 11 11 10 10 10 11 11 12 13 13 13 13 12 12 11 11 12 12 12 14 15 15 16 17 17 19 20 21 22 23 23 23 24 24 24 24 25 26 27 27 28 28 28 28 27 27 26 26 26 26 27 27 26 25 25 24
2 2 2 1 1 1 1 1 2 3 3 3 3 4 5 4 3 5 6 6 10 10 9 8 7 6 6 6 6 7 7 7 6 6 6 9 13 14 13 13 12 12 11 10 10 9 10 11 11 13 13 13 13 12 12 10 9 9 10 10 10 12 13 14 15 16 17 19 19 20 22 22 23 23 23 24 24 24 25 26 26 27 27 28 29 29 30 29 29 28 27 27 28 28 29 29 27
4 4 4 4 3 2 2 4 2 2 3 3 3 6 6 3 2 3 4 5 9 10 8 7 7 8 8 8 9 9 8 7 6 6 7 10 13 15 14 13 12 12 12 12 10 9 9 9 9 10 11 12 11 11 11 10 10 9 10 10 9 11 12 13 15 16 17 18 19 20 20 21 22 22 23 24 25 25 26 26 26 27 27 27 28 28 29 31 31 32 32 31 30 29 30 30 30
Wind_Direction
312 307 318 333 326 334 351 65 54 337 73 66 336 57 229 242 172 108 274 294 4 257 223 195 159 125 107 180 191 198 181 175 171 129 207 246 169 177 182 187 193 178 183 185 190 193 190 189 185 183 185 181 180 179 178 178 179 179 178 177 176 177 176 178 176 172 176 171 171 166 161 163 158 155 153 154 155 154 159 161 160 161 156 146 143 146 143 139 143 149 142 140 138 128 125 122 120
336 327 337 333 324 346 290 76 81 341 49 62 322 145 229 329 36 157 203 210 207 237 211 189 206 90 65 137 159 129 235 224 184 174 239 238 143 178 182 191 206 189 182 183 188 193 191 191 189 186 187 184 183 181 181 182 181 182 181 180 179 179 177 178 177 176 176 171 170 165 162 163 160 160 158 159 160 157 162 166 168 170 155 145 146 144 139 139 149 152 147 157 157 148 149 146 150
354 344 351 346 332 34 43 43 87 59 69 89 300 257 302 30 174 212 215 216 226 234 90 124 317 124 66 31 125 123 271 273 186 193 308 173 162 180 186 195 207 195 185 183 188 193 193 193 191 189 189 187 186 184 185 186 183 184 184 183 181 181 180 179 177 176 175 171 169 167 163 162 161 161 162 167 169 165 169 174 179 176 152 148 151 145 140 138 144 142 128 155 176 171 170 171 182
358 349 346 2 26 31 51 49 114 109 111 148 283 278 283 189 207 238 239 250 257 293 52 79 7 205 110 358 241 149 263 292 207 177 167 191 180 183 192 198 199 192 189 188 189 194 196 195 193 192 191 190 190 189 188 188 187 187 187 186 184 183 183 183 180 176 175 173 171 172 168 165 166 164 170 175 178 175 175 181 188 179 155 156 155 145 144 137 132 132 108 129 184 184 180 185 200
351 353 344 24 69 35 81 75 92 99 162 181 138 273 254 211 215 244 270 300 291 341 133 118 350 273 125 218 182 149 234 279 241 201 193 189 175 182 194 196 189 188 191 192 192 195 198 197 195 194 193 192 192 192 191 191 190 189 190 188 186 186 186 185 182 178 177 176 175 176 175 175 174 174 177 179 184 178 173 179 186 178 160 159 152 144 138 129 123 128 109 95 196 203 195 195 219
351 9 14 46 84 116 85 63 39 323 217 169 148 246 240 227 214 178 327 325 314 277 170 129 148 316 333 252 183 190 221 98 199 206 196 179 165 176 192 193 188 189 191 194 196 198 199 198 197 196 196 194 193 195 194 194 193 193 194 191 189 187 188 188 183 180 181 181 181 179 179 182 182 182 181 181 184 174 166 170 175 172 163 160 154 149 137 126 123 131 152 72 262 236 218 217 238
353 2 23 50 41 54 85 111 198 254 227 168 166 215 220 235 216 122 8 331 350 335 251 210 147 90 293 290 289 253 215 173 180 184 181 171 162 172 188 192 192 193 192 194 197 200 201 200 199 197 198 197 195 195 197 197 195 196 196 194 194 190 191 190 184 182 185 185 186 183 182 186 187 188 184 183 184 174 163 162 169 168 166 165 159 158 153 151 133 134 202 200 272 248 224 234 225
356 2 39 80 35 25 87 124 224 210 215 233 195 202 210 217 200 108 26 291 355 307 330 291 49 76 291 2 303 269 12 190 182 165 169 166 164 170 186 192 195 196 194 196 196 201 202 202 201 199 199 199 199 198 199 200 197 197 195 195 195 193 193 192 186 186 188 188 189 188 185 189 194 193 186 185 186 178 168 164 169 171 174 171 169 173 172 186 210 211 233 225 240 243 227 203 145
16 32 47 77 63 28 46 4 297 230 268 291 234 229 233 204 154 94 68 349 4 273 291 272 27 20 294 353 282 277 355 169 159 159 164 163 166 170 185 194 198 198 197 199 198 200 202 204 204 202 202 201 202 201 202 202 200 200 197 195 195 194 193 192 189 190 192 192 192 191 191 193 198 196 190 191 187 184 180 174 175 180 184 182 187 189 184 186 185 203 221 224 235 252 281 145 141
28 34 78 73 74 39 1 309 317 277 272 289 262 263 270 233 85 76 81 346 10 282 290 265 75 328 297 315 276 301 342 171 155 161 164 162 167 174 188 196 203 204 200 202 202 200 201 205 206 205 205 203 204 205 204 204 203 203 201 198 197 196 192 192 192 194 195 196 197 194 196 200 204 200 195 195 187 188 191 183 182 189 195 198 206 207 204 202 200 222 227 221 230 246 207 152 146
31 355 80 76 61 63 1 267 286 279 281 305 294 273 255 206 87 63 48 349 353 35 312 4 47 286 328 299 264 305 236 195 176 169 168 167 173 179 189 197 204 211 210 208 206 204 201 204 207 208 208 206 207 207 206 206 206 205 204 202 200 198 195 195 195 197 197 197 198 198 202 206 211 204 195 197 193 195 200 191 190 196 205 214 223 225 220 215 213 219 222 218 221 220 169 156 151
68 340 60 85 101 171 205 236 273 281 301 322 284 280 256 121 87 72 345 343 2 19 311 196 139 210 349 303 263 309 235 198 192 183 181 177 182 182 187 197 204 211 216 216 213 209 204 204 207 210 211 210 209 210 210 209 210 209 208 206 204 202 199 200 200 199 198 197 197 200 207 210 214 205 196 200 201 203 205 201 202 206 218 224 230 229 217 214 211 206 217 226 224 182 161 158 154
97 118 79 84 175 181 196 224 275 311 329 293 213 282 3 67 262 195 176 211 357 16 279 214 159 107 254 276 282 326 265 204 199 205 198 183 186 183 186 196 201 209 216 219 219 215 209 206 208 210 212 213 212 213 214 213 212 212 212 211 209 208 206 205 205 203 199 198 197 200 207 212 214 206 200 204 206 209 211 211 212 220 231 232 228 221 217 225 220 211 223 233 237 174 163 161 159
116 139 102 95 278 156 189 273 323 56 325 271 242 290 344 356 230 184 150 332 286 212 237 214 152 110 248 297 320 312 259 213 203 207 202 184 188 186 188 197 201 208 214 219 223 223 216 212 211 211 212 214 215 215 216 216 215 214 215 215 213 212 211 208 208 206 203 201 200 201 208 213 213 210 206 205 207 212 215 218 221 228 237 243 231 212 216 222 217 221 230 239 241 194 169 168 166
123 116 92 101 6 354 217 284 357 112 218 257 257 287 335 299 183 175 184 221 272 224 221 248 144 160 231 194 270 265 286 222 202 202 199 190 191 189 193 200 206 208 212 218 223 226 222 218 215 214 213 214 216 216 217 218 218 217 217 217 215 215 214 211 211 209 206 205 205 206 210 214 216 215 210 207 211 214 215 222 228 231 237 249 237 204 203 207 212 227 235 239 232 196 175 175 173
108 104 70 73 11 349 218 222 104 86 270 235 269 336 354 302 135 299 249 149 287 279 174 235 188 207 199 194 244 275 327 245 203 201 198 193 193 196 200 203 208 209 211 216 221 225 224 222 219 218 217 216 217 217 218 219 220 219 219 219 217 217 216 213 213 212 210 209 210 211 214 216 217 217 212 211 215 215 217 227 232 232 236 245 237 205 196 194 210 228 234 236 224 193 181 179 178
62 76 69 47 187 218 211 189 125 83 279 265 306 356 122 293 308 296 297 80 310 288 282 240 238 216 196 225 262 314 323 234 203 202 195 195 197 201 206 207 209 210 213 217 220 223 224 224 223 222 221 219 218 219 219 220 221 220 220 220 219 218 217 216 215 214 213 213 214 216 218 219 218 217 215 214 215 215 219 229 232 232 236 240 232 212 201 192 208 230 233 233 222 193 183 183 185
51 78 97 243 194 205 188 174 182 171 274 271 303 11 157 278 307 316 348 21 326 302 293 271 285 267 238 256 278 305 294 223 205 202 197 199 203 206 210 211 212 214 216 218 221 222 224 226 226 225 224 223 221 220 220 220 221 221 221 221 221 220 219 218 218 218 217 216 217 219 221 223 222 219 217 216 216 217 222 229 231 234 238 240 236 224 214 201 208 227 226 222 213 190 184 188 189
84 116 112 234 202 216 199 177 195 208 252 257 281 231 195 257 270 340 310 311 329 315 294 300 306 281 260 261 272 289 259 214 213 208 208 209 211 215 216 215 217 222 221 221 225 226 226 227 227 228 227 225 223 222 222 221 221 222 222 221 221 222 221 221 221 222 222 221 220 222 224 225 225 222 219 219 219 221 226 231 233 238 242 243 243 233 224 214 214 221 216 210 203 188 189 192 193
147 120 121 242 216 235 238 196 202 225 226 256 282 269 286 280 222 309 327 309 309 281 275 296 303 294 289 252 248 273 235 216 220 219 222 224 226 227 226 225 225 230 230 229 232 230 230 230 230 231 230 227 225 224 224 223 222 223 223 221 221 222 222 223 224 225 225 226 224 225 226 227 227 225 223 221 221 223 226 232 237 244 246 244 244 238 229 223 219 220 218 211 198 190 194 196 199
165 136 181 231 204 237 262 240 229 231 200 229 281 327 317 294 204 326 359 339 303 273 246 242 267 287 296 290 254 250 233 227 228 228 231 233 237 237 239 241 242 245 242 238 236 233 233 234 234 233 232 229 227 226 225 225 223 223 224 222 222 222 223 224 224 225 226 228 228 227 228 228 229 226 224 222 222 224 226 232 238 241 243 242 241 239 232 225 221 220 221 213 197 195 199 199 204
163 215 206 219 176 222 266 257 267 287 280 283 309 320 299 304 332 285 291 289 271 268 246 228 248 268 284 297 303 276 240 233 236 237 241 246 249 250 250 251 252 251 244 239 239 239 236 235 237 235 233 231 230 230 228 228 225 223 225 225 224 223 224 225 225 226 227 229 229 229 228 228 230 228 224 222 223 225 225 230 233 235 238 240 240 239 235 228 224 223 225 217 202 200 200 202 209
210 270 246 238 206 225 273 285 301 337 344 292 284 289 298 1 318 273 220 241 240 260 264 251 263 269 280 293 300 299 288 274 271 276 283 287 289 287 280 273 268 261 253 249 248 245 239 236 236 234 233 232 232 233 231 230 229 227 227 227 226 224 224 224 225 226 228 230 229 229 227 226 228 228 225 223 224 224 225 229 231 233 236 238 240 240 238 233 229 228 230 226 210 204 203 204 209
209 257 281 261 217 220 254 281 281 276 252 251 234 319 297 279 297 314 273 258 252 265 283 274 273 282 290 300 313 322 336 344 0 21 24 14 2 358 348 320 297 280 269 265 263 255 247 240 235 233 233 234 234 233 232 232 232 231 230 228 227 226 225 224 225 227 228 229 230 230 227 227 228 227 225 225 225 226 228 232 233 235 236 239 240 241 240 237 233 231 233 231 217 207 207 207 210
201 228 279 289 252 244 264 279 276 276 261 244 270 292 270 242 227 303 274 269 270 280 314 305 298 307 316 348 6 17 25 21 23 32 35 33 36 42 39 30 25 358 305 285 279 270 258 248 236 233 233 234 235 232 232 233 234 233 232 231 229 227 226 226 227 227 229 230 231 231 228 227 227 227 227 227 228 230 233 235 235 236 237 238 239 240 240 239 235 233 234 234 223 212 211 210 212
213 210 263 283 284 282 285 282 275 280 269 226 284 278 278 252 178 258 264 261 276 332 336 325 350 343 359 37 39 39 37 26 17 18 24 28 33 34 31 32 36 37 26 357 302 275 265 258 244 237 236 236 234 233 233 234 234 233 233 233 231 229 228 229 229 229 231 232 232 232 230 229 229 228 228 229 230 232 235 236 236 237 238 239 241 241 241 241 239 236 234 235 227 218 217 216 218
216 213 263 265 280 289 269 267 277 285 269 224 230 265 289 310 188 262 269 259 291 5 333 340 6 356 35 57 50 43 40 29 17 20 23 23 25 21 19 24 27 30 28 26 15 310 254 259 255 244 239 237 235 234 235 235 235 235 235 234 233 233 233 233 233 233 234 234 235 235 232 231 232 232 231 231 233 234 236 237 238 238 239 240 241 242 243 243 242 240 238 238 232 222 220 222 224
217 273 306 298 321 307 275 270 276 278 275 207 185 250 304 15 211 238 257 270 335 345 330 15 14 14 62 67 51 46 40 31 26 32 26 17 17 13 15 18 20 27 31 31 29 21 239 234 250 249 242 238 236 236 238 237 237 237 236 235 234 235 235 235 235 236 236 237 239 238 236 233 233 234 234 234 235 237 238 238 240 240 241 241 241 242 243 244 244 242 239 239 238 230 227 227 228
323 44 325 305 352 323 283 284 249 174 262 184 152 292 314 183 223 241 257 294 342 330 330 32 31 39 73 70 56 50 34 31 31 32 25 18 18 16 18 19 21 27 33 37 39 40 40 231 236 245 244 241 240 241 241 240 240 238 237 236 235 235 234 235 235 237 239 240 241 241 241 238 235 236 236 237 238 240 241 240 242 242 242 242 241 241 242 243 244 241 237 237 239 237 235 233 229
315 25 330 301 359 321 279 299 119 158 211 173 142 297 282 247 243 254 272 313 340 326 329 17 38 59 78 65 60 51 35 32 30 28 24 22 21 20 22 24 28 30 35 44 49 51 50 54 223 248 243 242 243 243 243 242 241 238 237 236 235 234 233 234 235 237 239 239 241 241 242 241 239 240 240 241 240 241 242 242 243 245 244 242 240 241 242 243 243 240 236 235 239 241 241 236 230
325 330 348 337 353 281 288 309 136 218 249 136 127 196 261 275 274 270 273 311 356 326 333 21 51 69 69 59 59 51 40 35 31 29 26 26 25 24 26 28 34 36 40 47 52 58 62 66 69 75 233 242 242 241 242 242 242 239 237 236 236 237 236 236 236 237 237 238 240 241 242 242 241 242 243 243 242 242 243 243 244 246 245 242 240 240 243 244 242 241 238 236 239 243 243 237 232
29 301 309 335 191 265 305 304 189 198 296 67 114 206 268 278 277 276 273 94 55 343 348 44 69 69 66 59 57 54 44 38 34 30 28 29 29 29 31 33 39 42 44 49 54 62 67 70 74 79 82 90 231 242 243 241 242 238 236 237 239 242 241 241 239 238 238 237 237 238 239 240 241 242 243 243 243 242 243 244 245 246 244 242 241 240 242 244 242 240 239 239 239 240 239 237 234
349 183 251 273 197 261 313 311 265 175 177 49 127 213 282 279 273 281 294 76 56 22 34 74 81 68 69 64 55 55 43 36 32 27 26 30 33 35 38 40 45 48 51 54 57 60 63 67 73 76 77 78 81 91 157 206 217 217 219 223 228 235 238 240 240 238 238 237 238 238 239 239 240 240 241 242 242 242 242 243 245 243 241 241 241 240 242 244 242 239 238 238 238 237 236 236 235
316 298 233 247 208 207 283 303 335 46 92 351 247 203 258 270 277 289 302 354 38 56 89 96 90 75 71 68 60 53 43 39 29 21 22 28 35 40 44 47 52 55 57 59 60 62 63 65 70 74 76 80 83 86 92 101 113 121 125 129 133 144 180 215 229 234 236 240 242 243 243 242 240 240 241 241 242 241 241 241 242 240 239 238 239 242 244 244 242 239 238 237 235 234 235 237 237
233 227 218 258 243 228 251 269 298 5 34 303 280 272 266 272 277 287 303 344 25 74 114 109 93 83 70 64 61 53 48 45 29 21 26 32 37 42 47 50 54 57 60 62 64 66 66 66 68 71 73 76 82 88 92 97 101 101 102 103 99 93 93 101 112 133 170 242 256 256 252 246 244 242 242 243 242 242 240 240 240 240 239 238 238 241 241 240 239 238 237 235 232 232 236 240 240
207 218 192 224 254 256 253 256 255 260 328 283 267 267 269 276 280 288 310 350 29 77 99 93 85 78 69 65 59 55 53 43 29 29 34 38 41 45 48 52 55 59 61 64 67 67 66 67 68 68 66 70 76 80 85 90 92 92 93 92 86 77 72 74 73 68 62 53 41 32 7 298 260 248 244 245 245 246 245 242 241 240 240 238 237 239 239 241 241 240 238 234 230 230 233 237 239
196 233 229 235 246 268 269 269 271 228 227 269 256 249 262 271 276 291 318 344 22 73 88 81 79 72 68 72 63 59 56 39 34 37 40 42 45 49 50 53 56 58 59 62 65 66 66 68 68 66 64 68 70 69 73 76 77 79 80 81 79 73 69 66 63 56 51 48 47 47 47 42 18 329 286 272 269 263 256 250 246 243 243 243 243 242 241 241 241 240 238 233 230 229 230 233 233
247 238 266 272 243 258 267 261 281 277 193 266 303 291 272 273 279 313 342 360 16 56 101 96 89 83 70 71 64 57 52 34 37 37 38 41 45 50 52 53 54 54 55 58 62 64 67 69 69 67 67 69 68 68 72 74 74 76 79 80 80 77 72 68 65 60 55 53 50 48 50 50 40 26 12 1 350 333 311 287 270 260 254 250 248 245 242 239 236 236 234 231 231 231 233 234 229
224 213 228 260 243 270 285 281 311 350 183 265 337 339 276 278 289 5 11 36 38 35 79 86 89 89 70 64 61 53 50 35 33 31 32 36 40 48 53 53 53 54 56 59 62 64 66 67 68 69 70 71 71 73 75 76 78 80 80 80 79 77 72 72 73 68 63 58 53 47 43 38 29 21 9 1 359 356 351 340 322 298 278 262 252 246 243 240 237 236 235 234 233 230 232 234 229
215 194 187 244 241 221 274 288 324 343 258 260 325 318 278 279 291 59 32 60 73 51 64 65 66 81 72 66 59 52 56 42 36 30 25 30 34 41 49 52 54 55 56 58 60 62 62 64 66 69 71 73 75 78 81 85 88 89 88 86 86 84 80 82 83 74 65 58 54 48 41 35 25 15 1 350 345 348 348 346 343 334 319 296 273 259 253 250 244 241 240 239 235 230 230 232 232
243 211 203 230 235 214 228 281 328 334 337 354 357 322 287 274 269 99 63 70 78 64 70 67 55 66 68 67 58 46 51 46 41 36 23 30 34 35 42 51 56 57 56 56 59 62 63 64 67 69 71 73 75 79 85 93 95 94 94 91 87 81 73 71 68 62 60 58 56 51 46 42 37 32 23 11 359 351 347 343 342 340 340 335 317 293 274 266 259 253 249 245 240 235 235 236 235
278 234 210 219 232 231 235 347 12 2 331 331 24 324 287 296 298 184 155 100 75 65 69 71 58 55 59 58 53 42 45 47 46 43 35 38 42 41 41 44 51 55 57 60 63 66 67 68 70 71 71 72 73 76 81 88 89 87 85 80 72 66 59 54 54 54 57 58 58 56 52 48 45 43 38 30 23 14 3 352 346 342 343 344 343 334 309 288 277 269 263 256 250 246 244 243 241
271 250 209 212 221 226 224 143 79 166 261 296 48 172 271 313 327 223 177 132 97 86 73 75 68 57 66 59 44 34 33 39 44 43 41 44 48 48 45 43 46 51 57 64 67 68 69 70 71 71 71 71 71 75 78 82 82 80 80 77 72 68 61 56 56 60 61 62 62 60 57 53 47 43 39 34 31 28 24 15 5 355 350 348 346 344 338 320 298 285 277 270 265 258 251 247 248
236 248 150 147 160 181 193 150 158 217 254 317 10 115 268 292 274 241 157 133 120 111 100 96 103 86 83 78 60 49 31 29 39 44 41 43 49 53 52 50 51 55 59 64 67 68 69 69 71 73 72 72 72 74 77 78 79 79 78 77 73 70 66 62 61 62 63 64 64 60 58 58 52 44 35 26 23 23 25 24 21 15 6 358 353 349 345 338 322 304 291 282 276 268 258 251 250
239 221 118 116 133 144 121 108 130 322 11 302 299 116 274 270 265 275 128 153 212 177 160 156 145 134 116 104 84 62 41 28 34 46 46 44 49 56 60 61 60 62 64 66 68 70 71 71 73 74 73 73 73 75 77 77 78 78 76 74 71 68 66 65 64 62 60 59 58 55 54 55 52 48 40 29 23 19 17 15 17 18 15 9 2 356 350 344 337 325 313 303 293 281 270 260 254
215 142 91 65 69 78 73 91 98 25 349 247 227 178 234 269 277 299 114 195 228 186 170 172 159 154 140 125 108 79 56 39 37 47 53 54 57 60 66 69 67 67 69 71 72 72 73 73 74 74 72 73 74 75 76 76 76 76 74 71 69 66 64 63 62 59 56 55 55 52 49 48 45 42 36 27 22 21 18 13 9 7 5 3 0 357 352 346 341 335 328 320 313 303 293 280 269
131 93 56 33 31 42 46 62 77 46 282 245 211 190 194 263 284 239 178 236 204 158 159 175 167 161 152 142 133 114 82 58 48 48 55 62 67 67 69 69 68 70 72 73 73 73 73 73 74 75 73 74 75 75 76 75 74 73 71 70 67 63 60 59 56 53 51 52 52 51 50 49 46 42 38 32 26 20 16 13 10 4 355 349 349 351 350 346 340 335 331 326 322 317 311 303 291
99 86 69 49 346 10 24 2 44 132 257 260 218 183 173 230 267 257 277 300 231 166 171 173 168 165 160 152 145 130 98 74 60 52 57 65 68 67 67 66 67 69 71 71 72 74 75 75 76 76 73 74 75 75 75 74 73 72 71 70 67 64 61 59 56 52 49 49 48 48 49 48 46 44 41 38 35 30 25 20 13 5 357 347 343 341 338 337 333 329 327 325 324 321 318 315 308
81 97 95 90 322 353 358 304 235 219 254 256 173 137 159 234 252 325 329 321 306 243 180 167 164 160 158 154 147 128 101 89 78 69 62 67 68 66 66 66 67 68 69 73 75 76 77 77 78 77 73 73 76 76 76 75 74 73 73 72 70 67 65 63 60 56 53 50 48 47 46 44 42 40 38 37 36 34 33 30 25 19 9 357 344 335 328 326 325 323 321 320 321 321 321 319 316
135 143 132 131 152 191 252 256 258 258 267 264 158 137 273 261 273 327 319 311 305 296 140 146 149 146 148 147 142 125 111 112 109 101 84 76 76 74 74 73 73 73 74 78 80 81 82 81 81 80 77 76 78 78 78 77 76 75 74 73 70 68 66 63 61 58 55 52 50 48 46 44 41 38 36 34 32 32 33 32 30 28 23 16 7 356 346 337 329 324 319 317 317 317 317 319 318
173 155 136 151 160 170 211 217 206 242 278 297 206 163 199 219 252 297 304 322 341 50 99 112 113 120 126 121 122 123 126 135 128 111 98 91 88 84 82 82 82 84 84 85 85 86 88 87 87 86 82 79 79 79 78 77 76 74 73 71 69 66 64 62 58 55 52 49 47 45 44 41 39 36 33 30 27 26 26 25 25 24 23 21 17 13 8 1 352 342 332 323 317 315 313 311 313
214 119 109 173 185 166 195 209 181 184 288 296 227 209 211 185 240 313 349 18 35 60 88 104 106 111 114 116 132 148 157 160 145 126 112 103 98 94 92 91 89 88 87 87 88 91 94 94 93 90 86 84 82 80 78 75 73 71 68 66 63 61 58 55 51 47 45 42 39 38 36 34 32 30 27 24 22 19 17 16 16 15 14 13 11 10 8 5 2 358 352 344 334 327 318 311 309
159 125 179 218 179 137 135 263 184 106 232 261 210 234 283 316 289 329 39 55 62 71 94 110 118 126 129 147 172 178 181 178 167 158 142 121 111 106 102 95 91 90 92 95 98 100 102 100 99 97 94 91 87 83 80 75 72 68 64 60 56 52 49 45 41 38 34 33 31 29 27 25 23 21 19 17 15 13 11 8 7 6 5 4 2 1 359 358 357 356 354 352 348 340 328 320 315
130 170 213 204 120 98 104 235 321 41 229 268 270 233 262 266 254 309 71 114 144 144 130 124 136 151 161 182 190 190 192 186 182 172 152 138 128 118 109 102 100 105 109 111 110 108 105 102 102 101 97 91 85 81 78 73 69 65 61 57 51 46 42 38 34 30 26 25 23 21 19 17 15 13 12 11 8 6 5 3 1 360 358 357 355 354 352 350 349 347 347 346 345 342 335 331 326
136 197 202 129 148 225 111 167 220 230 229 272 288 265 252 215 215 208 197 199 188 176 164 162 175 181 185 194 198 202 200 192 184 175 164 153 143 133 128 130 133 132 129 124 119 115 111 108 107 103 98 92 87 82 78 73 67 62 58 54 47 42 38 32 28 24 20 18 16 14 12 10 8 6 4 3 1 359 358 356 355 353 352 351 350 349 348 346 344 342 340 338 338 336 333 331 329
87 227 250 93 177 186 164 175 177 190 220 255 278 285 269 236 204 185 205 199 175 172 188 195 194 192 195 195 195 203 201 194 186 181 180 165 157 157 157 161 162 155 146 136 129 125 120 117 115 111 107 103 97 91 88 84 77 67 62 58 48 40 36 29 25 20 15 13 10 7 5 4 2 1 359 359 357 354 352 349 348 346 345 344 344 343 343 341 339 337 335 334 333 331 328 325 324
136 192 211 230 221 169 237 225 136 146 195 219 255 265 261 253 189 186 221 199 171 180 192 199 198 195 207 207 202 208 203 197 193 183 179 173 170 172 172 174 175 169 164 156 147 137 127 121 118 114 111 108 104 101 99 98 95 80 67 64 49 37 34 26 20 16 11 8 5 1 360 358 357 356 354 353 351 349 347 343 341 339 338 337 336 336 336 335 333 331 330 328 327 326 324 321 320
155 178 193 195 181 150 251 251 185 150 189 184 223 260 263 253 204 205 225 186 175 187 187 188 196 196 204 212 211 212 205 197 196 186 181 180 177 177 177 180 182 180 179 174 166 156 140 127 118 114 111 109 107 105 102 97 93 81 64 59 45 28 24 17 12 9 4 3 0 357 354 351 351 350 348 346 344 342 340 337 335 332 330 329 327 327 327 327 325 324 323 322 322 321 318 316 315